User: anonymous   Login
Location: Mitty Observatory
(35.9148°N, 88.8847°W)
Time: 06:10:11
(UTC-05:00)
Language:

LightSail 2 - Orbit

View from above orbital plane
View from above orbital plane
View from above satellite
View from above satellite

Ground track
Ground track

The orbit data is extracted from the following two-line orbital elements,

1 44420U 19036AC  21101.11761661  .00007156  00000-0  14263-2 0  9994
2 44420  24.0080  21.9253 0022620 174.6509 185.4227 14.59525324 93760
Epoch (UTC): 11 April 2021 02:49:22
Eccentricity: 0.0022620
inclination: 24.0080°
perigee height: 679 km
apogee height: 711 km
right ascension of ascending node: 21.9253°
argument of perigee: 174.6509°
revolutions per day: 14.59525324
mean anomaly at epoch: 185.4227°
orbit number at epoch: 9376

The dashed part of the orbit path shows where the satellite is in the earth's shadow,  

DLR